Zurück zum Katalog

LOPEN

AktivKommunikationSSO
NORAD 60473·PAYLOAD·🇺🇸 United States

Gestartet Aug 16, 2024 von Vandenberg Space Force Base

Loading…

Nächste Überflüge (nächste 24 Stunden)

TLE

AktuellSource: Space-Track

Epoche: Sep 13, 2026, 18:34 UTC

1 60473U 24149F   26256.77376258  .00012550  00000-0  29602-3 0  9991
2 60473  97.3731 340.9614 0000401  24.8432 335.2834 15.42033905115903

Verfolge LOPEN in Echtzeit mit AllMySat

Download on the App Store